軌道要素
Epoch 2022 Jan. 21.0 TT = JDT 2459600.5
T 2022 Apr. 26.95069 TT Rudenko
q 0.5571418 (2000.0) P Q
n 0.18464275 Peri. 327.90925 +0.56325262 -0.82284500
a 3.0543200 Node 87.70493 +0.77313957 +0.49266914
e 0.8175889 Incl. 4.32288 +0.29155048 +0.28320173
P 5.34
From 1822 observations 2016 Nov. 6-2022 May 19, mean residual 0".7.
Nongravitational parameters A1 = +0.10, A2 = -0.0566.
|